Showing default

O3B FM16, 43232

Orbit data source: Space-Track

O3B FM16, 43232 is a payload satellite owned by O3B SES (JE) that was launched on Fri, 09 Mar 2018 UTC via a SOYUZ-ST-B launch vehicle from the French Guiana (FRGUI). Payloads include a variety of satellites, spacecraft, and rockets equipped with specific instruments for various scientific and technological missions. These include communications satellites like Starlink; space stations such as the ISS; scientific satellites like the Hubble; Earth observation satellites from companies like Planet Labs, Umbra, and HawkEye 360; GPS; miniature CubeSats for education and research; and military/defense satellites.

Loading next visibility...
O3B FM16 details
Identifier
43232, 2018-024B
Orbit
Active
Last TLE update2 days ago
Origin
Flag of JEO3B SES (JE / O3B)
ManufacturerThales Alenia
MissionOperational Commercial Communications
Bus & MotorPRISMA?, LS-400 AOCS?
Mass700 kg wet, ~500 kg dry
Launch date (UTC)
2018-03-09 (7 years ago)
Launch vehicle
SOYUZ-ST-B
Launch site
French Guiana (FRGUI)
Object type
Payload
Rocket body
Debris
Shape & HBRTrap Box + 2 Pan, 12 m
Radar Cross Section21.980 m², Large (>1 m²)

Expand to show TLE details & history

TLE from 2 days ago
0 O3B FM16
1 43232U 18024B   24359.84055610 -.00000015  00000-0  00000-0 0  9998
2 43232   0.0572   4.7797 0002963 273.3027  81.8851  5.00115521123960
Epoch: 2024-12-24T20:10Z
Definitive object data (Epoch: 2024-12-24T20:10:24.047Z)
Latitude-0.00445°
Longitude-36.44309°
Altitude8,063.769 km
Speed5.255 km/s
True Right ascension23h 59m 59s
True Declination0° 00' 16"
Sunlit
Object was in daylight at TLE epoch
Visualization TLE readout
Latitude-0.03757°
Longitude-176.25142°
Altitude8,062.175 km
Speed5.255 km/s
Apparent Right ascension13h 41m 56s
Apparent Declination-13° 19' 57"
Sunlit
Object is in daylight
Visualization observer readout
Local Sidereal Time22:28:11
Azimuth288.056° WNW
Elevation-40.023°
Doppler factor1
Orbital elements
Apogee altitude8,073.229 km
Perigee altitude8,064.668 km
Semi-major axis14,447.085 km
Eccentricity0.0002963
Inclination0.0572°
RAAN4.7797°
Arg. of periapsis273.3027°
True anomaly81.91872°
Mean anomaly81.8851°
Eccentric anomaly81.90191°
Mean motion1.24989 °/min
BSTARUnknown
Orbital period288.02 mins
Loading maneuver chart data...
Loading historical data...
Loading historical data...
Loading historical data...
Loading historical data...
Loading historical data...
Loading historical data...
Loading historical data...
Other satellites on launch #24 in the year 2018 (2018-03-09 UTC)

O3B FM16 Visibility forecast

Observer location: undefined°, undefined

Span
Click to sort rows by Start time (UTC) header in descending order
Start Az.
Max El. time (UTC)
Max El. Az.
Max El.
End time (UTC)
End Az.
80 mins2024-12-27 00:21:55.956Z232.413° WSW2024-12-27 01:01:55.956Z179.679° S24.373°2024-12-27 01:41:55.956Z127.136° SE
79 mins2024-12-27 06:22:55.956Z231.483° WSW2024-12-27 07:01:55.956Z179.729° S24.435°2024-12-27 07:41:55.956Z127.193° SE
78 mins2024-12-27 12:22:55.956Z231.53° WSW2024-12-27 13:01:55.956Z179.785° S24.366°2024-12-27 13:40:55.956Z128.242° SE
78 mins2024-12-27 18:22:55.956Z231.469° WSW2024-12-27 19:01:55.956Z179.734° S24.304°2024-12-27 19:40:55.956Z128.185° SE
|